This is the latest recevied weather packets stored in our database for station/object K6POO-1. If no packets are shown the sender has not sent any weather packets the latest 10 day(s).
| Time | Temp. | Humidity | Pressure | Rain* | Wind** | Luminosity | Snow |
|---|---|---|---|---|---|---|---|
| 1788629365 | 20° C | 71% | 1015.2 hPa | 0 mm | - | 699 W/m² | - |
| 1788629062 | 20° C | 71% | 1015.3 hPa | 0 mm | - | 679 W/m² | - |
| 1788628759 | 20° C | 71% | 1015.3 hPa | 0 mm | - | 665 W/m² | - |
| 1788628455 | 20° C | 71% | 1015.2 hPa | 0 mm | - | 641 W/m² | - |
| 1788628151 | 20° C | 71% | 1015.3 hPa | 0 mm | - | 627 W/m² | - |
| 1788627847 | 20° C | 71% | 1015.1 hPa | 0 mm | - | 610 W/m² | - |
| 1788627546 | 20° C | 72% | 1015.1 hPa | 0 mm | - | 592 W/m² | - |
| 1788627241 | 20° C | 71% | 1015.1 hPa | 0 mm | - | 579 W/m² | - |
| 1788626936 | 19.44° C | 72% | 1015 hPa | 0 mm | - | 562 W/m² | - |
| 1788626631 | 19.44° C | 72% | 1014.7 hPa | 0 mm | - | 543 W/m² | - |
| 1788626326 | 19.44° C | 71% | 1015 hPa | 0 mm | - | 521 W/m² | - |
| 1788626022 | 19.44° C | 72% | 1014.9 hPa | 0 mm | - | 508 W/m² | - |
| 1788625718 | 18.89° C | 73% | 1015 hPa | 0 mm | - | 503 W/m² | - |
| 1788625418 | 18.89° C | 72% | 1015.1 hPa | 0 mm | - | 507 W/m² | - |
| 1788625113 | 18.89° C | 73% | 1014.9 hPa | 0 mm | - | 507 W/m² | - |
| 1788624812 | 18.89° C | 74% | 1015 hPa | 0 mm | - | 500 W/m² | - |
| 1788624510 | 18.33° C | 74% | 1015 hPa | 0 mm | - | 485 W/m² | - |
| 1788624223 | 18.33° C | 74% | 1014.9 hPa | 0 mm | - | 479 W/m² | - |
| 1788623900 | 18.33° C | 74% | 1014.8 hPa | 0 mm | - | 442 W/m² | - |
| 1788623599 | 18.89° C | 74% | 1015 hPa | 0 mm | - | 348 W/m² | - |
| 1788623299 | 18.33° C | 75% | 1014.9 hPa | 0 mm | - | 312 W/m² | - |
| 1788622994 | 18.89° C | 73% | 1014.9 hPa | 0 mm | - | 310 W/m² | - |
| 1788622690 | 18.89° C | 75% | 1015.1 hPa | 0 mm | - | 311 W/m² | - |
| 1788622386 | 18.33° C | 77% | 1015 hPa | 0 mm | - | 277 W/m² | - |
| 1788622081 | 18.33° C | 78% | 1015.2 hPa | 0 mm | - | 239 W/m² | - |
* Rain latest hour (hover to see other rain measurements)
** Current wind speed in m/s (hover to see current wind gust speed)